Weather History for PAOH - August, 2013

Change the Weather History Date:

Sunday, August 18, 2013

  Actual Average Record
Temperature  
Mean Temperature 56 °F -  
Max Temperature 59 °F 60 °F 69 °F (2007)
Min Temperature 52 °F 48 °F 6 °F (2008)
Degree Days  
Heating Degree Days 10    
Growing Degree Days 6 (Base 50)    
Moisture  
Dew Point 54 °F    
Average Humidity 94    
Maximum Humidity 100    
Minimum Humidity 78    
Precipitation  
Precipitation 0.18 in - - ()
Sea Level Pressure  
Sea Level Pressure 29.70 in    
Wind  
Wind Speed 4 mph (ENE)    
Max Wind Speed 7 mph    
Max Gust Speed -    
Visibility 8 miles    
Events Rain    
Averages and records for this station are not official NWS values.
T = Trace of Precipitation, MM = Missing Value Source: NWS Daily Summary

Daily Weather History Graph

Daily Weather History Graph

Search for Another Location

Airport or City:

Trip Planner

Search our weather history database for the weather conditions in past years. The results will help you decide how hot, cold, wet, or windy it might be!

Date:

Astronomy

Aug. 18, 2013 Rise Set
Actual Time 5:31 AM AKDT 8:37 PM AKDT
Civil Twilight 4:45 AM AKDT 9:23 PM AKDT
Nautical Twilight 3:42 AM AKDT 10:25 PM AKDT
Astronomical Twilight 2:01 AM AKDT 12:01 AM AKDT
Moon 7:00 PM AKDT (8/18) 2:31 AM AKDT (8/18)
Length of Visible Light 16h 37m
Length of Day
15h 05m
Waxing Gibbous, 93% of the Moon is Illuminated
Aug 18
Waxing Gibbous
Aug 20
Full
Aug 28
Last Quarter
Sep 5
New
Sep 12
First Quarter

Hourly Weather History & Observations

Time (AKDT) Temp. Dew Point Humidity Pressure Visibility Wind Dir Wind Speed Gust Speed Precip Events Conditions
12:56 AM 57.2 °F 55.4 °F 94% 29.61 in 10.0 mi East 6.9 mph - N/A   Mostly Cloudy
1:56 AM 56.8 °F 54.9 °F 93% 29.62 in 10.0 mi ESE 4.6 mph - N/A   Overcast
2:56 AM 55.9 °F 55.9 °F 100% 29.65 in 2.5 mi Variable 6.9 mph - 0.01 in Rain Rain
3:01 AM 55.4 °F 55.4 °F 100% 29.64 in 3.0 mi Variable 3.5 mph - 0.00 in Rain Light Rain
3:56 AM 55.4 °F 53.6 °F 94% 29.64 in 10.0 mi Variable 3.5 mph - N/A   Overcast
4:56 AM 52.9 °F 52.9 °F 100% 29.66 in 10.0 mi Calm Calm - N/A   Mostly Cloudy
5:56 AM 52.9 °F 52.9 °F 100% 29.67 in 10.0 mi East 3.5 mph - N/A   Overcast
6:56 AM 52.9 °F 52.9 °F 100% 29.68 in 10.0 mi Calm Calm - N/A   Mostly Cloudy
7:56 AM 54.0 °F 54.0 °F 100% 29.69 in 10.0 mi Calm Calm - N/A   Mostly Cloudy
8:56 AM 55.9 °F 54.0 °F 93% 29.70 in 10.0 mi Calm Calm - N/A   Overcast
9:56 AM 59.0 °F 53.6 °F 82% 29.70 in 10.0 mi Variable 3.5 mph - N/A   Overcast
10:56 AM 59.0 °F 52.0 °F 78% 29.71 in 10.0 mi Calm Calm - N/A   Overcast
11:26 AM 57.2 °F 53.6 °F 88% 29.71 in 4.0 mi ENE 5.8 mph - 0.00 in Rain Light Rain
11:56 AM 56.8 °F 54.0 °F 90% 29.72 in 8.0 mi East 4.6 mph - 0.00 in   Overcast
12:08 PM 55.4 °F 53.6 °F 94% 29.72 in 2.5 mi East 5.8 mph - 0.04 in Rain Rain
12:23 PM 55.4 °F 55.4 °F 100% 29.71 in 8.0 mi East 3.5 mph - 0.05 in Rain Light Rain
12:56 PM 57.9 °F 52.9 °F 83% 29.72 in 10.0 mi ENE 5.8 mph - 0.05 in   Mostly Cloudy
1:56 PM 57.9 °F 54.0 °F 87% 29.73 in 10.0 mi ENE 5.8 mph - N/A   Overcast
2:56 PM 56.8 °F 52.9 °F 87% 29.73 in 6.0 mi Calm Calm - 0.02 in Rain Light Rain
3:56 PM 57.2 °F 53.6 °F 88% 29.72 in 10.0 mi Variable 3.5 mph - N/A   Mostly Cloudy
4:56 PM 59.0 °F 54.9 °F 86% 29.72 in 10.0 mi Variable 3.5 mph - 0.00 in   Overcast
5:22 PM 57.2 °F 53.6 °F 88% 29.72 in 3.0 mi NE 4.6 mph - 0.04 in Rain Light Rain
5:56 PM 55.9 °F 54.9 °F 96% 29.73 in 1.8 mi East 4.6 mph - 0.10 in Rain Rain
6:00 PM 55.4 °F 55.4 °F 100% 29.72 in 2.0 mi ENE 3.5 mph - 0.01 in Rain Rain
6:14 PM 55.4 °F 53.6 °F 94% 29.71 in 10.0 mi North 3.5 mph - 0.01 in Rain Light Rain
6:56 PM 57.2 °F 55.4 °F 94% 29.72 in 8.0 mi ENE 5.8 mph - N/A Rain Light Rain
7:56 PM 54.9 °F 54.0 °F 97% 29.73 in 10.0 mi NW 3.5 mph - 0.00 in   Overcast
8:56 PM 54.9 °F 54.0 °F 97% 29.74 in 10.0 mi Calm Calm - N/A   Overcast
9:56 PM 53.6 °F 53.6 °F 100% 29.74 in 9.0 mi ENE 3.5 mph - N/A   Overcast
10:56 PM 52.9 °F 52.9 °F 100% 29.75 in 10.0 mi Calm Calm - 0.00 in   Overcast
11:56 PM 52.9 °F 52.9 °F 100% 29.75 in 10.0 mi Calm Calm - N/A   Overcast